contact:dominique.lefevre@mio.osupytheas.fr, maurice.libes@osupytheas.fr, didier.mallarino@osupytheas.fr
Project:EMSO http://www.emso-fr.org/EMSO-France
Depth: 2436.0 m
Title:EMSO Ligure Ouest : Data MII capteur MICROCAT
DateTime_Computer,Latitude,Longitude,Temperature,Conductivity,Pressure,DateTime_Instrument
DateTime_Computer,Latitude,Longitude,degC,S m-1,dbar,DateTime_Instrument
2019-07-21T00:00:25Z,42.805,6.029,13.2972,4.59978,2470.03,2019-7-21T02:00:44Z
2019-07-21T00:03:28Z,42.805,6.029,13.2992,4.59986,2469.993,2019-7-21T02:03:47Z
2019-07-21T00:06:32Z,42.805,6.029,13.2985,4.59979,2470.03,2019-7-21T02:06:50Z
2019-07-21T00:09:35Z,42.805,6.029,13.2983,4.59986,2469.97,2019-7-21T02:09:53Z
2019-07-21T00:12:38Z,42.805,6.029,13.2982,4.59980,2470.03,2019-7-21T02:12:57Z
2019-07-21T00:15:41Z,42.805,6.029,13.2986,4.59991,2469.993,2019-7-21T02:16:00Z
2019-07-21T00:18:44Z,42.805,6.029,13.2981,4.59987,2469.993,2019-7-21T02:19:03Z
2019-07-21T00:21:47Z,42.805,6.029,13.2982,4.59988,2470.007,2019-7-21T02:22:06Z
2019-07-21T00:24:51Z,42.805,6.029,13.3000,4.59978,2470.007,2019-7-21T02:25:09Z
2019-07-21T00:27:54Z,42.805,6.029,13.2987,4.59977,2469.993,2019-7-21T02:28:13Z
2019-07-21T00:30:57Z,42.805,6.029,13.2982,4.59974,2469.993,2019-7-21T02:31:16Z
2019-07-21T00:34:00Z,42.805,6.029,13.2979,4.59976,2469.993,2019-7-21T02:34:19Z
2019-07-21T00:37:03Z,42.805,6.029,13.2982,4.59976,2469.984,2019-7-21T02:37:22Z
2019-07-21T00:40:07Z,42.805,6.029,13.2989,4.59972,2470.03,2019-7-21T02:40:25Z
2019-07-21T00:43:10Z,42.805,6.029,13.2982,4.59978,2470.017,2019-7-21T02:43:29Z
2019-07-21T00:46:13Z,42.805,6.029,13.2983,4.59981,2470.007,2019-7-21T02:46:32Z
2019-07-21T00:49:16Z,42.805,6.029,13.2986,4.59982,2469.993,2019-7-21T02:49:35Z
2019-07-21T00:52:19Z,42.805,6.029,13.2980,4.59976,2469.97,2019-7-21T02:52:38Z
2019-07-21T00:55:23Z,42.805,6.029,13.2984,4.59978,2470.017,2019-7-21T02:55:41Z
2019-07-21T00:58:26Z,42.805,6.029,13.2990,4.59982,2469.923,2019-7-21T02:58:45Z
2019-07-21T01:01:29Z,42.805,6.029,13.2983,4.59976,2469.984,2019-7-21T03:01:48Z
2019-07-21T01:04:32Z,42.805,6.029,13.3003,4.59976,2469.97,2019-7-21T03:04:51Z
2019-07-21T01:07:35Z,42.805,6.029,13.2975,4.59979,2469.984,2019-7-21T03:07:54Z
2019-07-21T01:10:38Z,42.805,6.029,13.2973,4.59973,2469.984,2019-7-21T03:10:57Z
2019-07-21T01:13:42Z,42.805,6.029,13.2981,4.59978,2469.984,2019-7-21T03:14:00Z
2019-07-21T01:16:45Z,42.805,6.029,13.2984,4.59976,2470.007,2019-7-21T03:17:04Z
2019-07-21T01:19:48Z,42.805,6.029,13.2980,4.59979,2470.007,2019-7-21T03:20:07Z
2019-07-21T01:22:51Z,42.805,6.029,13.2976,4.59977,2469.993,2019-7-21T03:23:10Z
2019-07-21T01:25:54Z,42.805,6.029,13.2982,4.59971,2469.96,2019-7-21T03:26:13Z
2019-07-21T01:28:57Z,42.805,6.029,13.2982,4.59978,2469.984,2019-7-21T03:29:16Z
2019-07-21T01:32:01Z,42.805,6.029,13.2976,4.59979,2469.984,2019-7-21T03:32:20Z
2019-07-21T01:35:04Z,42.805,6.029,13.2993,4.59976,2469.97,2019-7-21T03:35:23Z
2019-07-21T01:38:07Z,42.805,6.029,13.2987,4.59979,2469.947,2019-7-21T03:38:26Z
2019-07-21T01:41:11Z,42.805,6.029,13.2979,4.59978,2469.923,2019-7-21T03:41:29Z
2019-07-21T01:44:14Z,42.805,6.029,13.2981,4.59986,2469.947,2019-7-21T03:44:33Z
2019-07-21T01:47:17Z,42.805,6.029,13.2982,4.59979,2469.984,2019-7-21T03:47:36Z
2019-07-21T01:50:20Z,42.805,6.029,13.2984,4.59982,2469.923,2019-7-21T03:50:39Z
2019-07-21T01:53:24Z,42.805,6.029,13.2985,4.59971,2469.923,2019-7-21T03:53:42Z
2019-07-21T01:56:27Z,42.805,6.029,13.2983,4.59985,2469.96,2019-7-21T03:56:46Z
2019-07-21T01:59:30Z,42.805,6.029,13.3000,4.59984,2469.96,2019-7-21T03:59:49Z
2019-07-21T02:02:34Z,42.805,6.029,13.2991,4.59996,2469.947,2019-7-21T04:02:52Z
2019-07-21T02:05:37Z,42.805,6.029,13.2977,4.59983,2469.937,2019-7-21T04:05:56Z
2019-07-21T02:08:40Z,42.805,6.029,13.3002,4.59980,2469.923,2019-7-21T04:08:59Z
2019-07-21T02:11:44Z,42.805,6.029,13.3000,4.59978,2469.947,2019-7-21T04:12:03Z
2019-07-21T02:14:47Z,42.805,6.029,13.2988,4.59988,2469.947,2019-7-21T04:15:06Z
2019-07-21T02:17:50Z,42.805,6.029,13.2992,4.59974,2469.937,2019-7-21T04:18:09Z
2019-07-21T02:20:54Z,42.805,6.029,13.2991,4.59978,2469.947,2019-7-21T04:21:13Z
2019-07-21T02:23:57Z,42.805,6.029,13.2996,4.59984,2469.923,2019-7-21T04:24:16Z
2019-07-21T02:27:00Z,42.805,6.029,13.3018,4.59985,2469.96,2019-7-21T04:27:19Z
2019-07-21T02:30:04Z,42.805,6.029,13.2991,4.59986,2469.914,2019-7-21T04:30:22Z
2019-07-21T02:33:07Z,42.805,6.029,13.2988,4.59990,2469.947,2019-7-21T04:33:26Z
2019-07-21T02:36:10Z,42.805,6.029,13.3004,4.59988,2469.914,2019-7-21T04:36:29Z
2019-07-21T02:39:13Z,42.805,6.029,13.2990,4.59977,2469.923,2019-7-21T04:39:32Z
2019-07-21T02:42:17Z,42.805,6.029,13.2979,4.59996,2469.876,2019-7-21T04:42:35Z
2019-07-21T02:45:20Z,42.805,6.029,13.2991,4.59980,2469.937,2019-7-21T04:45:39Z
2019-07-21T02:48:23Z,42.805,6.029,13.2986,4.59989,2469.937,2019-7-21T04:48:42Z
2019-07-21T02:51:27Z,42.805,6.029,13.2988,4.59981,2469.937,2019-7-21T04:51:45Z
2019-07-21T02:54:30Z,42.805,6.029,13.3001,4.59986,2469.923,2019-7-21T04:54:49Z
2019-07-21T02:57:33Z,42.805,6.029,13.2983,4.59978,2469.937,2019-7-21T04:57:52Z
2019-07-21T03:00:36Z,42.805,6.029,13.2985,4.59991,2469.914,2019-7-21T05:00:55Z
2019-07-21T03:03:40Z,42.805,6.029,13.2985,4.59973,2469.9,2019-7-21T05:03:58Z
2019-07-21T03:06:43Z,42.805,6.029,13.2980,4.59976,2469.9,2019-7-21T05:07:02Z
2019-07-21T03:09:46Z,42.805,6.029,13.2996,4.59973,2469.923,2019-7-21T05:10:05Z
2019-07-21T03:12:50Z,42.805,6.029,13.2982,4.59973,2469.914,2019-7-21T05:13:08Z
2019-07-21T03:15:53Z,42.805,6.029,13.2988,4.59981,2469.914,2019-7-21T05:16:12Z
2019-07-21T03:18:57Z,42.805,6.029,13.2993,4.59973,2469.9,2019-7-21T05:19:15Z
2019-07-21T03:22:00Z,42.805,6.029,13.2983,4.59978,2469.914,2019-7-21T05:22:19Z
2019-07-21T03:25:03Z,42.805,6.029,13.2981,4.60026,2469.9,2019-7-21T05:25:22Z
2019-07-21T03:28:06Z,42.805,6.029,13.2978,4.60019,2469.89,2019-7-21T05:28:25Z
2019-07-21T03:31:10Z,42.805,6.029,13.2979,4.59991,2469.914,2019-7-21T05:31:28Z
2019-07-21T03:34:13Z,42.805,6.029,13.2990,4.59986,2469.863,2019-7-21T05:34:32Z
2019-07-21T03:37:16Z,42.805,6.029,13.2974,4.60013,2469.876,2019-7-21T05:37:35Z
2019-07-21T03:40:19Z,42.805,6.029,13.2984,4.59983,2469.876,2019-7-21T05:40:38Z
2019-07-21T03:43:23Z,42.805,6.029,13.2983,4.59985,2469.914,2019-7-21T05:43:42Z
2019-07-21T03:46:26Z,42.805,6.029,13.2986,4.59972,2469.89,2019-7-21T05:46:45Z
2019-07-21T03:49:29Z,42.805,6.029,13.2981,4.59997,2469.867,2019-7-21T05:49:48Z
2019-07-21T03:52:33Z,42.805,6.029,13.2983,4.59968,2469.914,2019-7-21T05:52:51Z
2019-07-21T03:55:36Z,42.805,6.029,13.2988,4.59983,2469.914,2019-7-21T05:55:55Z
2019-07-21T03:58:39Z,42.805,6.029,13.2992,4.59986,2469.853,2019-7-21T05:58:58Z
2019-07-21T04:01:42Z,42.805,6.029,13.2980,4.59985,2469.923,2019-7-21T06:02:01Z
2019-07-21T04:04:46Z,42.805,6.029,13.2988,4.59986,2469.876,2019-7-21T06:05:05Z
2019-07-21T04:07:49Z,42.805,6.029,13.2992,4.59980,2469.876,2019-7-21T06:08:08Z
2019-07-21T04:10:52Z,42.805,6.029,13.2987,4.59985,2469.853,2019-7-21T06:11:11Z
2019-07-21T04:13:56Z,42.805,6.029,13.2985,4.59983,2469.914,2019-7-21T06:14:14Z
2019-07-21T04:16:59Z,42.805,6.029,13.2982,4.59978,2469.867,2019-7-21T06:17:18Z
2019-07-21T04:20:02Z,42.805,6.029,13.3036,4.59986,2469.914,2019-7-21T06:20:21Z
2019-07-21T04:23:06Z,42.805,6.029,13.2986,4.59978,2469.914,2019-7-21T06:23:24Z
2019-07-21T04:26:09Z,42.805,6.029,13.2989,4.59983,2469.853,2019-7-21T06:26:28Z
2019-07-21T04:29:12Z,42.805,6.029,13.2998,4.60004,2469.89,2019-7-21T06:29:31Z
2019-07-21T04:32:16Z,42.805,6.029,13.2983,4.59978,2469.914,2019-7-21T06:32:34Z
2019-07-21T04:35:19Z,42.805,6.029,13.2987,4.59982,2469.876,2019-7-21T06:35:38Z
2019-07-21T04:38:22Z,42.805,6.029,13.2992,4.59990,2469.89,2019-7-21T06:38:41Z
2019-07-21T04:41:25Z,42.805,6.029,13.2997,4.59994,2469.876,2019-7-21T06:41:44Z
2019-07-21T04:44:29Z,42.805,6.029,13.2993,4.59994,2469.876,2019-7-21T06:44:47Z
2019-07-21T04:47:32Z,42.805,6.029,13.2998,4.59993,2469.876,2019-7-21T06:47:51Z
2019-07-21T04:50:35Z,42.805,6.029,13.2998,4.59994,2469.89,2019-7-21T06:50:54Z
2019-07-21T04:53:39Z,42.805,6.029,13.2984,4.59986,2469.89,2019-7-21T06:53:57Z
2019-07-21T04:56:42Z,42.805,6.029,13.2998,4.59985,2469.853,2019-7-21T06:57:01Z
2019-07-21T04:59:45Z,42.805,6.029,13.2991,4.59996,2469.9,2019-7-21T07:00:04Z
2019-07-21T05:02:49Z,42.805,6.029,13.2997,4.60005,2469.867,2019-7-21T07:03:08Z
2019-07-21T05:05:52Z,42.805,6.029,13.2998,4.59983,2469.914,2019-7-21T07:06:11Z
2019-07-21T05:08:55Z,42.805,6.029,13.3000,4.60001,2469.853,2019-7-21T07:09:14Z
2019-07-21T05:11:59Z,42.805,6.029,13.2983,4.59991,2469.89,2019-7-21T07:12:17Z
2019-07-21T05:15:02Z,42.805,6.029,13.2994,4.59994,2469.89,2019-7-21T07:15:21Z
2019-07-21T05:18:05Z,42.805,6.029,13.3002,4.59991,2469.876,2019-7-21T07:18:24Z
2019-07-21T05:21:09Z,42.805,6.029,13.2985,4.59981,2469.844,2019-7-21T07:21:28Z
2019-07-21T05:24:12Z,42.805,6.029,13.2988,4.59978,2469.867,2019-7-21T07:24:31Z
2019-07-21T05:27:15Z,42.805,6.029,13.2998,4.59976,2469.89,2019-7-21T07:27:34Z
2019-07-21T05:30:19Z,42.805,6.029,13.2993,4.59989,2469.9,2019-7-21T07:30:37Z
2019-07-21T05:33:22Z,42.805,6.029,13.2990,4.60003,2469.914,2019-7-21T07:33:41Z
2019-07-21T05:36:25Z,42.805,6.029,13.2976,4.59981,2469.867,2019-7-21T07:36:44Z
2019-07-21T05:39:29Z,42.805,6.029,13.2986,4.60007,2469.9,2019-7-21T07:39:47Z
2019-07-21T05:42:32Z,42.805,6.029,13.3000,4.59994,2469.89,2019-7-21T07:42:51Z
2019-07-21T05:45:35Z,42.805,6.029,13.2989,4.59983,2469.89,2019-7-21T07:45:54Z
2019-07-21T05:48:39Z,42.805,6.029,13.2994,4.59980,2469.9,2019-7-21T07:48:57Z
2019-07-21T05:51:42Z,42.805,6.029,13.2985,4.59986,2469.876,2019-7-21T07:52:01Z
2019-07-21T05:54:45Z,42.805,6.029,13.2999,4.59981,2469.876,2019-7-21T07:55:04Z
2019-07-21T05:57:48Z,42.805,6.029,13.3000,4.59986,2469.937,2019-7-21T07:58:07Z
2019-07-21T06:00:52Z,42.805,6.029,13.2984,4.59993,2469.937,2019-7-21T08:01:10Z
2019-07-21T06:03:55Z,42.805,6.029,13.3008,4.59985,2469.923,2019-7-21T08:04:14Z
2019-07-21T06:06:58Z,42.805,6.029,13.2993,4.59997,2469.853,2019-7-21T08:07:17Z
2019-07-21T06:10:01Z,42.805,6.029,13.2986,4.59977,2469.9,2019-7-21T08:10:20Z
2019-07-21T06:13:05Z,42.805,6.029,13.2991,4.59998,2469.9,2019-7-21T08:13:24Z
2019-07-21T06:16:08Z,42.805,6.029,13.2992,4.60006,2469.867,2019-7-21T08:16:27Z
2019-07-21T06:19:11Z,42.805,6.029,13.2997,4.59990,2469.937,2019-7-21T08:19:30Z
2019-07-21T06:22:14Z,42.805,6.029,13.2986,4.59991,2469.9,2019-7-21T08:22:33Z
2019-07-21T06:25:18Z,42.805,6.029,13.3006,4.59980,2469.914,2019-7-21T08:25:37Z
2019-07-21T06:28:21Z,42.805,6.029,13.2990,4.59990,2469.947,2019-7-21T08:28:40Z
2019-07-21T06:31:24Z,42.805,6.029,13.3006,4.59991,2469.914,2019-7-21T08:31:43Z
2019-07-21T06:34:28Z,42.805,6.029,13.2992,4.59982,2469.914,2019-7-21T08:34:47Z
2019-07-21T06:37:31Z,42.805,6.029,13.2998,4.59984,2469.9,2019-7-21T08:37:50Z
2019-07-21T06:40:34Z,42.805,6.029,13.2993,4.59983,2469.9,2019-7-21T08:40:53Z
2019-07-21T06:43:38Z,42.805,6.029,13.2989,4.59981,2469.937,2019-7-21T08:43:56Z
2019-07-21T06:46:41Z,42.805,6.029,13.2982,4.59978,2469.914,2019-7-21T08:47:00Z
2019-07-21T06:49:44Z,42.805,6.029,13.2993,4.59999,2469.914,2019-7-21T08:50:03Z
2019-07-21T06:52:47Z,42.805,6.029,13.3012,4.59984,2469.914,2019-7-21T08:53:06Z
2019-07-21T06:55:51Z,42.805,6.029,13.2990,4.59991,2469.914,2019-7-21T08:56:10Z
2019-07-21T06:58:54Z,42.805,6.029,13.2998,4.59985,2469.914,2019-7-21T08:59:13Z
2019-07-21T07:01:57Z,42.805,6.029,13.3000,4.59999,2469.937,2019-7-21T09:02:16Z
2019-07-21T07:05:01Z,42.805,6.029,13.3005,4.59996,2469.937,2019-7-21T09:05:19Z
2019-07-21T07:08:04Z,42.805,6.029,13.2991,4.59996,2469.937,2019-7-21T09:08:23Z
2019-07-21T07:11:07Z,42.805,6.029,13.2991,4.59994,2469.9,2019-7-21T09:11:26Z
2019-07-21T07:14:10Z,42.805,6.029,13.2988,4.59980,2469.947,2019-7-21T09:14:29Z
2019-07-21T07:17:14Z,42.805,6.029,13.2991,4.59986,2469.984,2019-7-21T09:17:33Z
2019-07-21T07:20:17Z,42.805,6.029,13.2998,4.59983,2469.984,2019-7-21T09:20:36Z
2019-07-21T07:23:20Z,42.805,6.029,13.2998,4.59986,2469.923,2019-7-21T09:23:39Z
2019-07-21T07:26:24Z,42.805,6.029,13.2986,4.59987,2469.923,2019-7-21T09:26:43Z
2019-07-21T07:29:27Z,42.805,6.029,13.2997,4.59992,2469.984,2019-7-21T09:29:46Z
2019-07-21T07:32:30Z,42.805,6.029,13.2991,4.59981,2469.914,2019-7-21T09:32:49Z
2019-07-21T07:35:33Z,42.805,6.029,13.2990,4.59987,2469.96,2019-7-21T09:35:52Z
2019-07-21T07:38:37Z,42.805,6.029,13.2990,4.59990,2469.96,2019-7-21T09:38:56Z
2019-07-21T07:41:40Z,42.805,6.029,13.2990,4.59981,2469.947,2019-7-21T09:41:59Z
2019-07-21T07:44:43Z,42.805,6.029,13.2993,4.59991,2469.937,2019-7-21T09:45:02Z
2019-07-21T07:47:47Z,42.805,6.029,13.2990,4.59980,2469.947,2019-7-21T09:48:05Z
2019-07-21T07:50:50Z,42.805,6.029,13.2996,4.59986,2469.947,2019-7-21T09:51:09Z
2019-07-21T07:53:53Z,42.805,6.029,13.3009,4.59996,2469.96,2019-7-21T09:54:12Z
2019-07-21T07:56:56Z,42.805,6.029,13.2991,4.59986,2469.937,2019-7-21T09:57:15Z
2019-07-21T08:00:00Z,42.805,6.029,13.3021,4.59993,2469.97,2019-7-21T10:00:19Z
2019-07-21T08:03:03Z,42.805,6.029,13.3023,4.59996,2469.96,2019-7-21T10:03:22Z
2019-07-21T08:06:06Z,42.805,6.029,13.3014,4.59984,2469.96,2019-7-21T10:06:25Z
2019-07-21T08:09:10Z,42.805,6.029,13.3007,4.59984,2469.984,2019-7-21T10:09:28Z
2019-07-21T08:12:13Z,42.805,6.029,13.3005,4.59989,2470.007,2019-7-21T10:12:32Z
2019-07-21T08:15:16Z,42.805,6.029,13.3004,4.59991,2469.984,2019-7-21T10:15:35Z
2019-07-21T08:18:19Z,42.805,6.029,13.2996,4.60001,2469.96,2019-7-21T10:18:38Z
2019-07-21T08:21:23Z,42.805,6.029,13.2993,4.59983,2469.937,2019-7-21T10:21:41Z
2019-07-21T08:24:26Z,42.805,6.029,13.3009,4.59991,2469.984,2019-7-21T10:24:45Z
2019-07-21T08:27:29Z,42.805,6.029,13.2997,4.59991,2469.947,2019-7-21T10:27:48Z
2019-07-21T08:30:32Z,42.805,6.029,13.2997,4.59998,2469.96,2019-7-21T10:30:51Z
2019-07-21T08:33:35Z,42.805,6.029,13.2994,4.59986,2469.97,2019-7-21T10:33:54Z
2019-07-21T08:36:39Z,42.805,6.029,13.3000,4.59988,2469.97,2019-7-21T10:36:57Z
2019-07-21T08:39:42Z,42.805,6.029,13.3009,4.59994,2469.96,2019-7-21T10:40:01Z
2019-07-21T08:42:45Z,42.805,6.029,13.2991,4.59983,2469.947,2019-7-21T10:43:04Z
2019-07-21T08:45:48Z,42.805,6.029,13.2998,4.59979,2469.984,2019-7-21T10:46:07Z
2019-07-21T08:48:51Z,42.805,6.029,13.3019,4.59985,2469.984,2019-7-21T10:49:10Z
2019-07-21T08:51:55Z,42.805,6.029,13.2986,4.59985,2469.96,2019-7-21T10:52:13Z
2019-07-21T08:54:58Z,42.805,6.029,13.3005,4.59991,2469.97,2019-7-21T10:55:17Z
2019-07-21T08:58:01Z,42.805,6.029,13.3001,4.59983,2469.984,2019-7-21T10:58:20Z
2019-07-21T09:01:04Z,42.805,6.029,13.2993,4.59990,2469.984,2019-7-21T11:01:23Z
2019-07-21T09:04:07Z,42.805,6.029,13.2998,4.59983,2469.97,2019-7-21T11:04:26Z
2019-07-21T09:07:11Z,42.805,6.029,13.3014,4.59986,2469.947,2019-7-21T11:07:29Z
2019-07-21T09:10:14Z,42.805,6.029,13.2996,4.59988,2469.984,2019-7-21T11:10:33Z
2019-07-21T09:13:17Z,42.805,6.029,13.2987,4.59979,2469.984,2019-7-21T11:13:36Z
2019-07-21T09:16:20Z,42.805,6.029,13.2991,4.59983,2469.984,2019-7-21T11:16:39Z
2019-07-21T09:19:23Z,42.805,6.029,13.3025,4.59986,2469.947,2019-7-21T11:19:42Z
2019-07-21T09:22:27Z,42.805,6.029,13.2996,4.59980,2469.937,2019-7-21T11:22:46Z
2019-07-21T09:25:30Z,42.805,6.029,13.3001,4.59981,2469.984,2019-7-21T11:25:49Z
2019-07-21T09:28:33Z,42.805,6.029,13.3011,4.59984,2469.947,2019-7-21T11:28:52Z
2019-07-21T09:31:36Z,42.805,6.029,13.2998,4.59996,2469.97,2019-7-21T11:31:55Z
2019-07-21T09:34:39Z,42.805,6.029,13.2997,4.59995,2469.97,2019-7-21T11:34:58Z
2019-07-21T09:37:43Z,42.805,6.029,13.2996,4.59989,2469.947,2019-7-21T11:38:01Z
2019-07-21T09:40:46Z,42.805,6.029,13.2995,4.59978,2469.984,2019-7-21T11:41:05Z
2019-07-21T09:43:49Z,42.805,6.029,13.2991,4.59981,2469.96,2019-7-21T11:44:08Z
2019-07-21T09:46:52Z,42.805,6.029,13.2990,4.60014,2469.984,2019-7-21T11:47:11Z
2019-07-21T09:49:55Z,42.805,6.029,13.3000,4.59996,2469.984,2019-7-21T11:50:14Z
2019-07-21T09:52:59Z,42.805,6.029,13.2984,4.59985,2469.96,2019-7-21T11:53:17Z
2019-07-21T09:56:02Z,42.805,6.029,13.3006,4.59993,2469.97,2019-7-21T11:56:21Z
2019-07-21T09:59:05Z,42.805,6.029,13.3007,4.59995,2469.984,2019-7-21T11:59:24Z
2019-07-21T10:02:08Z,42.805,6.029,13.3017,4.59972,2469.984,2019-7-21T12:02:27Z
2019-07-21T10:05:11Z,42.805,6.029,13.3004,4.59986,2469.984,2019-7-21T12:05:30Z
2019-07-21T10:08:15Z,42.805,6.029,13.3007,4.59988,2469.947,2019-7-21T12:08:33Z
2019-07-21T10:11:18Z,42.805,6.029,13.2995,4.59988,2469.947,2019-7-21T12:11:37Z
2019-07-21T10:14:21Z,42.805,6.029,13.3017,4.59998,2469.96,2019-7-21T12:14:40Z
2019-07-21T10:17:24Z,42.805,6.029,13.3000,4.59986,2469.96,2019-7-21T12:17:43Z
2019-07-21T10:20:27Z,42.805,6.029,13.3011,4.59986,2469.96,2019-7-21T12:20:46Z
2019-07-21T10:23:31Z,42.805,6.029,13.3009,4.59983,2469.937,2019-7-21T12:23:49Z
2019-07-21T10:26:34Z,42.805,6.029,13.2994,4.59989,2469.96,2019-7-21T12:26:53Z
2019-07-21T10:29:37Z,42.805,6.029,13.3005,4.59981,2469.97,2019-7-21T12:29:56Z
2019-07-21T10:32:40Z,42.805,6.029,13.2992,4.59988,2469.97,2019-7-21T12:32:59Z
2019-07-21T10:35:43Z,42.805,6.029,13.2991,4.59995,2469.984,2019-7-21T12:36:02Z
2019-07-21T10:38:47Z,42.805,6.029,13.2998,4.59979,2469.937,2019-7-21T12:39:05Z
2019-07-21T10:41:50Z,42.805,6.029,13.2986,4.59985,2469.947,2019-7-21T12:42:09Z
2019-07-21T10:44:53Z,42.805,6.029,13.2986,4.59979,2469.937,2019-7-21T12:45:12Z
2019-07-21T10:47:56Z,42.805,6.029,13.2983,4.59991,2469.923,2019-7-21T12:48:15Z
2019-07-21T10:50:59Z,42.805,6.029,13.2990,4.59985,2469.96,2019-7-21T12:51:18Z
2019-07-21T10:54:03Z,42.805,6.029,13.3012,4.59997,2469.947,2019-7-21T12:54:21Z
2019-07-21T10:57:06Z,42.805,6.029,13.2988,4.59991,2469.923,2019-7-21T12:57:25Z
2019-07-21T11:00:09Z,42.805,6.029,13.2986,4.59983,2469.947,2019-7-21T13:00:28Z
2019-07-21T11:03:12Z,42.805,6.029,13.2991,4.59983,2469.947,2019-7-21T13:03:31Z
2019-07-21T11:06:15Z,42.805,6.029,13.3000,4.59980,2469.937,2019-7-21T13:06:34Z
2019-07-21T11:09:18Z,42.805,6.029,13.2990,4.59976,2469.96,2019-7-21T13:09:37Z
2019-07-21T11:12:22Z,42.805,6.029,13.3006,4.59987,2469.9,2019-7-21T13:12:40Z
2019-07-21T11:15:25Z,42.805,6.029,13.2998,4.59985,2469.937,2019-7-21T13:15:44Z
2019-07-21T11:18:28Z,42.805,6.029,13.2988,4.59986,2469.947,2019-7-21T13:18:47Z
2019-07-21T11:21:31Z,42.805,6.029,13.2990,4.59994,2469.96,2019-7-21T13:21:50Z
2019-07-21T11:24:34Z,42.805,6.029,13.2980,4.59982,2469.923,2019-7-21T13:24:53Z
2019-07-21T11:27:38Z,42.805,6.029,13.2981,4.60000,2469.923,2019-7-21T13:27:56Z
2019-07-21T11:30:41Z,42.805,6.029,13.2995,4.59981,2469.937,2019-7-21T13:31:00Z
2019-07-21T11:33:44Z,42.805,6.029,13.2990,4.59995,2469.937,2019-7-21T13:34:03Z
2019-07-21T11:36:47Z,42.805,6.029,13.2996,4.59978,2469.914,2019-7-21T13:37:06Z
2019-07-21T11:39:50Z,42.805,6.029,13.2986,4.59979,2469.937,2019-7-21T13:40:09Z
2019-07-21T11:42:54Z,42.805,6.029,13.2990,4.59978,2469.923,2019-7-21T13:43:12Z
2019-07-21T11:45:57Z,42.805,6.029,13.2988,4.59982,2469.937,2019-7-21T13:46:16Z
2019-07-21T11:49:00Z,42.805,6.029,13.2983,4.59986,2469.937,2019-7-21T13:49:19Z
2019-07-21T11:52:03Z,42.805,6.029,13.2980,4.59978,2469.923,2019-7-21T13:52:22Z
2019-07-21T11:55:06Z,42.805,6.029,13.2978,4.59971,2469.937,2019-7-21T13:55:25Z
2019-07-21T11:58:10Z,42.805,6.029,13.2979,4.59978,2469.937,2019-7-21T13:58:28Z
2019-07-21T12:01:13Z,42.805,6.029,13.2993,4.59978,2469.923,2019-7-21T14:01:32Z
2019-07-21T12:04:16Z,42.805,6.029,13.2978,4.60007,2469.9,2019-7-21T14:04:35Z
2019-07-21T12:07:19Z,42.805,6.029,13.2998,4.59979,2469.9,2019-7-21T14:07:38Z
2019-07-21T12:10:22Z,42.805,6.029,13.2994,4.59989,2469.9,2019-7-21T14:10:41Z
2019-07-21T12:13:26Z,42.805,6.029,13.3000,4.59991,2469.914,2019-7-21T14:13:44Z
2019-07-21T12:16:29Z,42.805,6.029,13.2990,4.59978,2469.923,2019-7-21T14:16:48Z
2019-07-21T12:19:32Z,42.805,6.029,13.2970,4.59975,2469.914,2019-7-21T14:19:51Z
2019-07-21T12:22:35Z,42.805,6.029,13.2984,4.59980,2469.937,2019-7-21T14:22:54Z
2019-07-21T12:25:38Z,42.805,6.029,13.2982,4.59980,2469.9,2019-7-21T14:25:57Z
2019-07-21T12:28:42Z,42.805,6.029,13.2982,4.59978,2469.909,2019-7-21T14:29:00Z
2019-07-21T12:31:45Z,42.805,6.029,13.2983,4.59980,2469.876,2019-7-21T14:32:04Z
2019-07-21T12:34:48Z,42.805,6.029,13.2982,4.60005,2469.937,2019-7-21T14:35:07Z
2019-07-21T12:37:51Z,42.805,6.029,13.2986,4.59991,2469.914,2019-7-21T14:38:10Z
2019-07-21T12:40:54Z,42.805,6.029,13.2983,4.60013,2469.9,2019-7-21T14:41:13Z
2019-07-21T12:43:58Z,42.805,6.029,13.2984,4.59983,2469.923,2019-7-21T14:44:16Z
2019-07-21T12:47:01Z,42.805,6.029,13.2988,4.59987,2469.914,2019-7-21T14:47:20Z
2019-07-21T12:50:04Z,42.805,6.029,13.2974,4.59991,2469.914,2019-7-21T14:50:23Z
2019-07-21T12:53:07Z,42.805,6.029,13.2976,4.59975,2469.9,2019-7-21T14:53:26Z
2019-07-21T12:56:10Z,42.805,6.029,13.3005,4.59980,2469.914,2019-7-21T14:56:29Z
2019-07-21T12:59:14Z,42.805,6.029,13.2983,4.59984,2469.9,2019-7-21T14:59:32Z
2019-07-21T13:02:17Z,42.805,6.029,13.2991,4.59978,2469.853,2019-7-21T15:02:36Z
2019-07-21T13:05:20Z,42.805,6.029,13.3008,4.59970,2469.876,2019-7-21T15:05:39Z
2019-07-21T13:08:23Z,42.805,6.029,13.2976,4.59982,2469.89,2019-7-21T15:08:42Z
2019-07-21T13:11:26Z,42.805,6.029,13.2981,4.59980,2469.9,2019-7-21T15:11:45Z
2019-07-21T13:14:30Z,42.805,6.029,13.2981,4.59983,2469.876,2019-7-21T15:14:48Z
2019-07-21T13:17:33Z,42.805,6.029,13.2994,4.59981,2469.89,2019-7-21T15:17:52Z
2019-07-21T13:20:36Z,42.805,6.029,13.2986,4.59981,2469.876,2019-7-21T15:20:55Z
2019-07-21T13:23:39Z,42.805,6.029,13.2979,4.59984,2469.853,2019-7-21T15:23:58Z
2019-07-21T13:26:43Z,42.805,6.029,13.2986,4.59977,2469.853,2019-7-21T15:27:01Z
2019-07-21T13:29:46Z,42.805,6.029,13.2966,4.59989,2469.914,2019-7-21T15:30:05Z
2019-07-21T13:32:49Z,42.805,6.029,13.2976,4.59980,2469.853,2019-7-21T15:33:08Z
2019-07-21T13:35:52Z,42.805,6.029,13.2977,4.59988,2469.876,2019-7-21T15:36:11Z
2019-07-21T13:38:55Z,42.805,6.029,13.2968,4.59987,2469.867,2019-7-21T15:39:14Z
2019-07-21T13:41:59Z,42.805,6.029,13.3022,4.59996,2469.867,2019-7-21T15:42:17Z
2019-07-21T13:45:02Z,42.805,6.029,13.2997,4.59991,2469.853,2019-7-21T15:45:21Z
2019-07-21T13:48:05Z,42.805,6.029,13.2984,4.59995,2469.89,2019-7-21T15:48:24Z
2019-07-21T13:51:08Z,42.805,6.029,13.2991,4.59996,2469.867,2019-7-21T15:51:27Z
2019-07-21T13:54:11Z,42.805,6.029,13.2974,4.59978,2469.867,2019-7-21T15:54:30Z
2019-07-21T13:57:15Z,42.805,6.029,13.2967,4.59988,2469.89,2019-7-21T15:57:33Z
2019-07-21T14:00:18Z,42.805,6.029,13.2979,4.59993,2469.867,2019-7-21T16:00:37Z
2019-07-21T14:03:21Z,42.805,6.029,13.2974,4.59976,2469.853,2019-7-21T16:03:40Z
2019-07-21T14:06:24Z,42.805,6.029,13.2987,4.59983,2469.867,2019-7-21T16:06:43Z
2019-07-21T14:09:27Z,42.805,6.029,13.2967,4.60003,2469.876,2019-7-21T16:09:46Z
2019-07-21T14:12:31Z,42.805,6.029,13.2977,4.59998,2469.853,2019-7-21T16:12:49Z
2019-07-21T14:15:34Z,42.805,6.029,13.2977,4.59987,2469.853,2019-7-21T16:15:53Z
2019-07-21T14:18:37Z,42.805,6.029,13.2979,4.59994,2469.853,2019-7-21T16:18:56Z
2019-07-21T14:21:40Z,42.805,6.029,13.2991,4.59995,2469.867,2019-7-21T16:21:59Z
2019-07-21T14:24:43Z,42.805,6.029,13.2964,4.59986,2469.867,2019-7-21T16:25:02Z
2019-07-21T14:27:47Z,42.805,6.029,13.2974,4.59989,2469.867,2019-7-21T16:28:05Z
2019-07-21T14:30:50Z,42.805,6.029,13.2990,4.59978,2469.867,2019-7-21T16:31:09Z
2019-07-21T14:33:53Z,42.805,6.029,13.2968,4.59991,2469.876,2019-7-21T16:34:12Z
2019-07-21T14:36:56Z,42.805,6.029,13.2991,4.59976,2469.853,2019-7-21T16:37:15Z
2019-07-21T14:39:59Z,42.805,6.029,13.2960,4.59979,2469.853,2019-7-21T16:40:18Z
2019-07-21T14:43:03Z,42.805,6.029,13.2982,4.60001,2469.83,2019-7-21T16:43:21Z
2019-07-21T14:46:06Z,42.805,6.029,13.2967,4.60014,2469.867,2019-7-21T16:46:25Z
2019-07-21T14:49:09Z,42.805,6.029,13.2977,4.59986,2469.83,2019-7-21T16:49:28Z
2019-07-21T14:52:12Z,42.805,6.029,13.2970,4.59972,2469.844,2019-7-21T16:52:31Z
2019-07-21T14:55:15Z,42.805,6.029,13.2967,4.59988,2469.844,2019-7-21T16:55:34Z
2019-07-21T14:58:18Z,42.805,6.029,13.2976,4.59983,2469.867,2019-7-21T16:58:37Z
2019-07-21T15:01:22Z,42.805,6.029,13.2972,4.59994,2469.867,2019-7-21T17:01:40Z
2019-07-21T15:04:25Z,42.805,6.029,13.2979,4.59997,2469.844,2019-7-21T17:04:44Z
2019-07-21T15:07:29Z,42.805,6.029,13.2960,4.59976,2469.853,2019-7-21T17:07:47Z
2019-07-21T15:10:32Z,42.805,6.029,13.2959,4.59973,2469.844,2019-7-21T17:10:51Z
2019-07-21T15:13:35Z,42.805,6.029,13.2959,4.59969,2469.83,2019-7-21T17:13:54Z